Time,TemperatureF,DewpointF,PressureIn,WindDirection,WindDirectionDegrees,WindSpeedMPH,WindSpeedGustMPH,Humidity,HourlyPrecipIn,Conditions,Clouds,dailyrainin,SoftwareType,DateUTC
2013-02-18 00:00:00,21.2,-9.1,30.18,WNW,296,7.6,7.6,25,0.00,,SKC,0.00,VWS V14.01,2013-02-18 05:00:00,
2013-02-18 00:20:00,21.0,-9.3,30.21,WNW,298,4.0,7.6,25,0.00,,SKC,0.00,VWS V14.01,2013-02-18 05:20:00,
2013-02-18 00:40:00,21.0,-11.9,30.21,WNW,286,3.1,7.6,22,0.00,,SKC,0.00,VWS V14.01,2013-02-18 05:40:00,
2013-02-18 01:00:00,20.1,-12.6,30.21,WNW,291,0.0,5.4,22,0.00,,SKC,0.00,VWS V14.01,2013-02-18 06:00:00,
2013-02-18 01:20:00,18.9,-12.8,30.21,WNW,291,0.0,0.0,23,0.00,,SKC,0.00,VWS V14.01,2013-02-18 06:20:00,
2013-02-18 01:40:00,18.0,-13.6,30.21,WNW,291,0.0,0.0,23,0.00,,SKC,0.00,VWS V14.01,2013-02-18 06:40:00,
2013-02-18 02:00:00,16.7,-14.6,30.24,WNW,291,0.0,0.0,23,0.00,,SKC,0.00,VWS V14.01,2013-02-18 07:00:00,
2013-02-18 02:20:00,15.8,-14.6,30.24,WNW,291,0.0,0.0,24,0.00,,SKC,0.00,VWS V14.01,2013-02-18 07:20:00,
2013-02-18 02:40:00,15.1,-15.2,30.24,WNW,291,0.0,0.0,24,0.00,,SKC,0.00,VWS V14.01,2013-02-18 07:40:00,
2013-02-18 03:00:00,14.5,-15.7,30.24,WNW,291,0.0,0.0,24,0.00,,SKC,0.00,VWS V14.01,2013-02-18 08:00:00,
2013-02-18 03:20:00,14.2,-16.0,30.24,WNW,291,0.0,0.0,24,0.00,,SKC,0.00,VWS V14.01,2013-02-18 08:20:00,
2013-02-18 03:40:00,13.8,-16.3,30.24,WNW,291,0.0,0.0,24,0.00,,SKC,0.00,VWS V14.01,2013-02-18 08:40:00,
2013-02-18 04:00:00,13.6,-16.4,30.24,WNW,291,0.0,0.0,24,0.00,,SKC,0.00,VWS V14.01,2013-02-18 09:00:00,
2013-02-18 04:20:00,13.1,-16.9,30.24,WNW,291,0.0,0.0,24,0.00,,SKC,0.00,VWS V14.01,2013-02-18 09:20:00,
2013-02-18 04:40:00,12.7,-17.2,30.24,WNW,291,0.0,0.0,24,0.00,,SKC,0.00,VWS V14.01,2013-02-18 09:40:00,
2013-02-18 05:00:00,12.4,-17.5,30.27,WNW,291,0.0,0.0,24,0.00,,SKC,0.00,VWS V14.01,2013-02-18 10:00:00,
2013-02-18 05:20:00,12.0,-17.8,30.27,WNW,291,0.0,0.0,24,0.00,,SKC,0.00,VWS V14.01,2013-02-18 10:20:00,
2013-02-18 05:40:00,11.8,-18.0,30.27,WNW,291,0.0,0.0,24,0.00,,SKC,0.00,VWS V14.01,2013-02-18 10:40:00,
2013-02-18 06:00:00,11.8,-18.0,30.27,WNW,291,0.0,0.0,24,0.00,,SKC,0.00,VWS V14.01,2013-02-18 11:00:00,
2013-02-18 06:20:00,11.8,-18.0,30.27,WNW,291,0.0,0.0,24,0.00,,SKC,0.00,VWS V14.01,2013-02-18 11:20:00,
2013-02-18 06:40:00,11.8,-18.0,30.29,WNW,291,0.0,0.0,24,0.00,,SKC,0.00,VWS V14.01,2013-02-18 11:40:00,
2013-02-18 07:00:00,11.8,-18.0,30.29,WNW,291,0.0,0.0,24,0.00,,SKC,0.00,VWS V14.01,2013-02-18 12:00:00,
2013-02-18 07:20:00,11.8,-18.0,30.29,WNW,291,0.0,0.0,24,0.00,,SKC,0.00,VWS V14.01,2013-02-18 12:20:00,
2013-02-18 07:40:00,12.6,-17.4,30.29,WNW,291,0.0,0.0,24,0.00,,SKC,0.00,VWS V14.01,2013-02-18 12:40:00,
2013-02-18 08:00:00,13.6,-16.4,30.27,WNW,291,0.0,0.0,24,0.00,,SKC,0.00,VWS V14.01,2013-02-18 13:00:00,
2013-02-18 08:20:00,15.3,-9.9,30.29,WNW,291,0.0,0.0,31,0.00,,SKC,0.00,VWS V14.01,2013-02-18 13:20:00,
2013-02-18 08:40:00,17.8,-8.4,30.29,WNW,291,0.0,0.0,30,0.00,,SKC,0.00,VWS V14.01,2013-02-18 13:40:00,
2013-02-18 09:00:00,22.1,-3.2,30.29,WNW,291,0.0,0.0,32,0.00,,SKC,0.00,VWS V14.01,2013-02-18 14:00:00,
2013-02-18 09:20:00,25.9,-0.6,30.32,WNW,291,0.0,0.0,31,0.00,,SKC,0.00,VWS V14.01,2013-02-18 14:20:00,
2013-02-18 09:40:00,32.7,-1.0,30.32,WNW,291,0.0,0.0,23,0.00,,SKC,0.00,VWS V14.01,2013-02-18 14:40:00,
2013-02-18 10:00:00,36.5,1.3,30.32,West,270,4.5,4.5,22,0.00,,SKC,0.00,VWS V14.01,2013-02-18 15:00:00,
2013-02-18 10:20:00,37.4,1.0,30.32,ENE,59,4.0,6.3,21,0.00,,SKC,0.00,VWS V14.01,2013-02-18 15:20:00,
2013-02-18 10:40:00,38.7,2.1,30.32,WNW,285,4.0,4.9,21,0.00,,SKC,0.00,VWS V14.01,2013-02-18 15:40:00,
2013-02-18 11:00:00,39.7,3.0,30.32,WSW,237,0.0,6.3,21,0.00,,SKC,0.00,VWS V14.01,2013-02-18 16:00:00,
2013-02-18 11:20:00,40.6,3.8,30.32,ESE,119,2.7,6.3,21,0.00,,SKC,0.00,VWS V14.01,2013-02-18 16:20:00,
2013-02-18 11:40:00,42.1,5.0,30.32,NNW,335,3.1,5.8,21,0.00,,SKC,0.00,VWS V14.01,2013-02-18 16:40:00,
2013-02-18 12:00:00,42.1,5.0,30.32,NE,42,3.6,4.9,21,0.00,,SKC,0.00,VWS V14.01,2013-02-18 17:00:00,
2013-02-18 12:20:00,42.8,4.5,30.32,WNW,291,5.4,5.4,20,0.00,,SKC,0.00,VWS V14.01,2013-02-18 17:20:00,
2013-02-18 16:20:00,44.4,5.9,30.27,NE,34,3.1,7.6,20,0.00,,SKC,0.00,VWS V14.01,2013-02-18 21:20:00,
2013-02-18 16:40:00,43.2,4.8,30.27,WSW,245,0.0,8.3,20,0.00,,SKC,0.00,VWS V14.01,2013-02-18 21:40:00,
2013-02-18 17:00:00,42.4,5.3,30.27,East,84,4.0,5.8,21,0.00,,SKC,0.00,VWS V14.01,2013-02-18 22:00:00,
2013-02-18 17:20:00,42.4,5.3,30.27,ENE,70,0.0,8.1,21,0.00,,SKC,0.00,VWS V14.01,2013-02-18 22:20:00,
2013-02-18 17:40:00,41.2,4.2,30.27,East,87,3.1,6.7,21,0.00,,SKC,0.00,VWS V14.01,2013-02-18 22:40:00,
2013-02-18 18:00:00,40.5,3.6,30.27,NNE,13,0.0,5.8,21,0.00,,SKC,0.00,VWS V14.01,2013-02-18 23:00:00,
2013-02-18 18:20:00,39.7,3.0,30.24,ENE,66,0.0,4.0,21,0.00,,SKC,0.00,VWS V14.01,2013-02-18 23:20:00,
2013-02-18 18:40:00,38.5,2.0,30.27,East,86,4.0,4.0,21,0.00,,SKC,0.00,VWS V14.01,2013-02-18 23:40:00,
2013-02-18 19:00:00,37.6,1.2,30.27,SE,132,6.3,6.3,21,0.00,,SKC,0.00,VWS V14.01,2013-02-19 00:00:00,
2013-02-18 19:20:00,37.9,1.5,30.27,East,101,4.0,6.3,21,0.00,,SKC,0.00,VWS V14.01,2013-02-19 00:20:00,
2013-02-18 19:40:00,37.9,1.5,30.27,East,86,3.6,6.3,21,0.00,,SKC,0.00,VWS V14.01,2013-02-19 00:40:00,
2013-02-18 20:00:00,37.6,1.2,30.24,ENE,75,3.6,4.9,21,0.00,,SKC,0.00,VWS V14.01,2013-02-19 01:00:00,
2013-02-18 20:20:00,37.6,1.2,30.24,ENE,78,3.1,5.4,21,0.00,,SKC,0.00,VWS V14.01,2013-02-19 01:20:00,
2013-02-18 20:40:00,37.8,1.4,30.24,ENE,76,5.4,7.2,21,0.00,,SKC,0.00,VWS V14.01,2013-02-19 01:40:00,
2013-02-18 21:00:00,37.9,1.5,30.24,SE,126,0.0,7.6,21,0.00,,SKC,0.00,VWS V14.01,2013-02-19 02:00:00,
2013-02-18 21:20:00,37.6,1.2,30.24,ESE,116,4.0,5.4,21,0.00,,SKC,0.00,VWS V14.01,2013-02-19 02:20:00,
2013-02-18 21:40:00,37.6,1.2,30.24,North,357,3.6,7.2,21,0.00,,SKC,0.00,VWS V14.01,2013-02-19 02:40:00,
2013-02-18 22:00:00,37.0,1.7,30.21,NE,34,2.2,4.9,22,0.00,,SKC,0.00,VWS V14.01,2013-02-19 03:00:00,
2013-02-18 22:20:00,37.0,1.7,30.24,ENE,63,4.9,4.9,22,0.00,,SKC,0.00,VWS V14.01,2013-02-19 03:20:00,
2013-02-18 22:40:00,37.2,1.9,30.21,ESE,118,5.4,8.1,22,0.00,,SKC,0.00,VWS V14.01,2013-02-19 03:40:00,
2013-02-18 23:00:00,36.9,1.6,30.18,NE,49,3.6,6.7,22,0.00,,SKC,0.00,VWS V14.01,2013-02-19 04:00:00,
2013-02-18 23:20:00,36.5,1.3,30.18,ENE,72,8.1,8.3,22,0.00,,SKC,0.00,VWS V14.01,2013-02-19 04:20:00,
2013-02-18 23:40:00,36.3,1.1,30.18,ENE,59,3.6,8.7,22,0.00,,SKC,0.00,VWS V14.01,2013-02-19 04:40:00,